| time (UTC) | temp F | wind direction | speed MPH | gust MPH | rain 1hr in | rain 24hr in | rain mn in | humidity % | barometer mb |
| 20260507073126 | 41 | 21 | 2.0 | 2.0 | 0.00 | 0.00 | 0.00 | 94 | 1010.0 |
| 20260507072624 | 41 | 35 | 2.0 | 3.0 | 0.00 | 0.00 | 0.00 | 93 | 1009.8 |
| 20260507072121 | 41 | 43 | 2.0 | 3.0 | 0.00 | 0.00 | 0.00 | 93 | 1010.0 |
| 20260507071619 | 41 | 52 | 2.0 | 3.0 | 0.00 | 0.00 | 0.00 | 93 | 1010.1 |
| 20260507071115 | 42 | 41 | 2.0 | 3.0 | 0.00 | 0.00 | 0.00 | 92 | 1009.9 |
| 20260507070612 | 42 | 26 | 3.0 | 6.0 | 0.00 | 0.00 | 0.00 | 91 | 1010.0 |
| 20260507070109 | 42 | 39 | 2.0 | 3.0 | 0.00 | 0.00 | 0.00 | 94 | 1010.2 |
| 20260507065605 | 42 | 352 | 2.0 | 2.0 | 0.00 | 0.00 | 0.00 | 92 | 1009.9 |
| 20260507065103 | 42 | 35 | 3.0 | 4.0 | 0.00 | 0.00 | 0.00 | 93 | 1010.0 |
| 20260507064600 | 42 | 26 | 3.0 | 4.0 | 0.00 | 0.00 | 0.00 | 93 | 1009.8 |
| 20260507064059 | 42 | 26 | 3.0 | 4.0 | 0.00 | 0.00 | 0.00 | 94 | 1010.1 |
| 20260507063556 | 42 | 14 | 3.0 | 4.0 | 0.00 | 0.00 | 0.00 | 93 | 1010.0 |
| 20260507063053 | 42 | 38 | 4.0 | 5.0 | 0.00 | 0.00 | 0.00 | 93 | 1009.9 |
| 20260507062549 | 42 | 31 | 4.0 | 4.0 | 0.00 | 0.00 | 0.00 | 93 | 1009.8 |
| 20260507062047 | 43 | 26 | 3.0 | 4.0 | 0.00 | 0.00 | 0.00 | 93 | 1009.6 |
| 20260507061544 | 43 | 46 | 3.0 | 4.0 | 0.00 | 0.00 | 0.00 | 94 | 1009.5 |
| 20260507061042 | 43 | 56 | 4.0 | 4.0 | 0.00 | 0.00 | 0.00 | 94 | 1009.8 |
| 20260507060540 | 43 | 39 | 3.0 | 5.0 | 0.00 | 0.00 | 0.00 | 94 | 1009.6 |
| 20260507060037 | 43 | 50 | 3.0 | 4.0 | 0.00 | 0.00 | 0.00 | 95 | 1009.6 |
| 20260507055531 | 44 | 21 | 5.0 | 5.0 | 0.00 | 0.00 | 0.00 | 96 | 1009.8 |
| 20260507055028 | 44 | 26 | 3.0 | 3.0 | 0.00 | 0.00 | 0.00 | 97 | 1009.8 |
| 20260507054524 | 44 | 69 | 2.0 | 4.0 | 0.00 | 0.00 | 0.00 | 97 | 1009.4 |
| 20260507054021 | 44 | 56 | 3.0 | 5.0 | 0.00 | 0.00 | 0.00 | 98 | 1009.4 |
| 20260507053519 | 44 | 24 | 2.0 | 4.0 | 0.00 | 0.00 | 0.00 | 99 | 1009.4 |
| 20260507053018 | 44 | 66 | 4.0 | 6.0 | 0.00 | 0.00 | 0.00 | 99 | 1009.5 |
| 20260507052515 | 44 | 44 | 2.0 | 3.0 | 0.00 | 0.00 | 0.00 | 99 | 1009.4 |
| 20260507052012 | 44 | 62 | 2.0 | 3.0 | 0.00 | 0.00 | 0.00 | 99 | 1009.8 |
| 20260507051509 | 44 | 73 | 2.0 | 4.0 | 0.00 | 0.00 | 0.00 | 99 | 1009.7 |
| 20260507051006 | 44 | 56 | 2.0 | 2.0 | 0.00 | 0.00 | 0.00 | 99 | 1009.6 |
| 20260507050502 | 44 | 79 | 4.0 | 4.0 | 0.00 | 0.00 | 0.00 | 99 | 1009.6 |
| 20260507045959 | 44 | 77 | 3.0 | 4.0 | 0.00 | 0.00 | 0.00 | 99 | 1009.7 |
| 20260507045455 | 44 | 72 | 2.0 | 4.0 | 0.00 | 0.00 | 0.00 | 99 | 1009.5 |
| 20260507044953 | 44 | 46 | 3.0 | 3.0 | 0.00 | 0.00 | 0.00 | 99 | 1009.6 |
| 20260507044450 | 44 | 41 | 2.0 | 3.0 | 0.00 | 0.00 | 0.00 | 99 | 1009.6 |
| 20260507043946 | 44 | 59 | 2.0 | 2.0 | 0.00 | 0.00 | 0.00 | 99 | 1009.5 |
| 20260507043442 | 44 | 89 | 1.0 | 2.0 | 0.00 | 0.00 | 0.00 | 99 | 1009.5 |
| 20260507042938 | 44 | 55 | 1.0 | 2.0 | 0.00 | 0.00 | 0.00 | 99 | 1009.6 |
| 20260507042435 | 44 | 52 | 2.0 | 2.0 | 0.00 | 0.00 | 0.00 | 99 | 1009.6 |
| 20260507041931 | 44 | 42 | 1.0 | 2.0 | 0.00 | 0.00 | 0.00 | 99 | 1009.4 |
| 20260507041428 | 44 | 42 | 2.0 | 2.0 | 0.00 | 0.00 | 0.00 | 99 | 1009.3 |
| 20260507040925 | 44 | 82 | 2.0 | 2.0 | 0.00 | 0.00 | 0.00 | 99 | 1009.2 |
| 20260507040421 | 44 | 80 | 2.0 | 3.0 | 0.00 | 0.00 | 0.00 | 99 | 1009.2 |
| 20260507035917 | 44 | 88 | 1.0 | 2.0 | 0.00 | 0.30 | 0.30 | 99 | 1009.3 |
| 20260507035414 | 44 | 40 | 0.0 | 2.0 | 0.00 | 0.30 | 0.30 | 99 | 1009.3 |
| 20260507034911 | 44 | 47 | 2.0 | 2.0 | 0.00 | 0.30 | 0.30 | 99 | 1009.1 |
| 20260507034408 | 44 | 88 | 1.0 | 2.0 | 0.00 | 0.30 | 0.30 | 99 | 1009.1 |
| 20260507033905 | 44 | 91 | 2.0 | 2.0 | 0.00 | 0.30 | 0.30 | 99 | 1009.2 |
| 20260507033403 | 43 | 73 | 1.0 | 2.0 | 0.00 | 0.30 | 0.30 | 99 | 1009.1 |
| 20260507032900 | 43 | 55 | 2.0 | 3.0 | 0.00 | 0.30 | 0.30 | 99 | 1008.7 |
| 20260507032357 | 43 | 64 | 2.0 | 2.0 | 0.00 | 0.30 | 0.30 | 99 | 1009.1 |
| 20260507031853 | 43 | 40 | 1.0 | 2.0 | 0.00 | 0.30 | 0.30 | 99 | 1009.3 |
| 20260507031350 | 43 | 47 | 2.0 | 2.0 | 0.00 | 0.30 | 0.30 | 99 | 1009.1 |
| 20260507030846 | 43 | 48 | 2.0 | 2.0 | 0.00 | 0.30 | 0.30 | 99 | 1009.5 |
| 20260507030344 | 43 | 38 | 2.0 | 3.0 | 0.00 | 0.30 | 0.30 | 99 | 1009.4 |
| 20260507025840 | 43 | 73 | 3.0 | 3.0 | 0.00 | 0.30 | 0.30 | 99 | 1009.1 |
| 20260507025338 | 43 | 52 | 2.0 | 2.0 | 0.00 | 0.30 | 0.30 | 99 | 1009.4 |
| 20260507024836 | 43 | 12 | 0.0 | 2.0 | 0.00 | 0.30 | 0.30 | 99 | 1009.6 |
| 20260507024333 | 43 | 6 | 0.0 | 1.0 | 0.00 | 0.30 | 0.30 | 99 | 1009.7 |
| 20260507023828 | 43 | 74 | 1.0 | 2.0 | 0.00 | 0.30 | 0.30 | 99 | 1009.6 |
| 20260507023324 | 43 | 53 | 2.0 | 3.0 | 0.00 | 0.30 | 0.30 | 99 | 1009.5 |
| 20260507022822 | 44 | 40 | 2.0 | 3.0 | 0.00 | 0.30 | 0.30 | 99 | 1009.3 |
| 20260507022318 | 44 | 52 | 3.0 | 3.0 | 0.00 | 0.30 | 0.30 | 99 | 1009.6 |
| 20260507021815 | 44 | 60 | 0.0 | 1.0 | 0.00 | 0.30 | 0.30 | 99 | 1009.9 |
| 20260507021311 | 44 | 352 | 0.0 | 0.0 | 0.00 | 0.30 | 0.30 | 99 | 1009.8 |
| 20260507020809 | 44 | 74 | 3.0 | 3.0 | 0.00 | 0.30 | 0.30 | 99 | 1009.7 |
| 20260507020305 | 44 | 52 | 1.0 | 2.0 | 0.00 | 0.30 | 0.30 | 99 | 1009.8 |
| 20260507015802 | 44 | 67 | 2.0 | 2.0 | 0.00 | 0.30 | 0.30 | 99 | 1009.7 |
| 20260507015300 | 44 | 78 | 2.0 | 2.0 | 0.00 | 0.30 | 0.30 | 99 | 1009.7 |
| 20260507014756 | 44 | 66 | 2.0 | 2.0 | 0.00 | 0.30 | 0.30 | 99 | 1009.8 |
| 20260507014253 | 44 | 42 | 1.0 | 2.0 | 0.00 | 0.30 | 0.30 | 99 | 1009.7 |
| 20260507013749 | 44 | 42 | 0.0 | 2.0 | 0.00 | 0.30 | 0.30 | 99 | 1009.7 |
| 20260507013247 | 44 | 52 | 2.0 | 2.0 | 0.00 | 0.30 | 0.30 | 99 | 1009.7 |
| 20260507012744 | 44 | 45 | 2.0 | 3.0 | 0.00 | 0.30 | 0.30 | 99 | 1009.7 |
| 20260507012239 | 44 | 52 | 2.0 | 2.0 | 0.00 | 0.30 | 0.30 | 99 | 1009.8 |
| 20260507011737 | 44 | 57 | 2.0 | 2.0 | 0.00 | 0.30 | 0.30 | 99 | 1009.8 |
| 20260507011233 | 44 | 84 | 2.0 | 3.0 | 0.00 | 0.30 | 0.30 | 99 | 1009.8 |
| 20260507010733 | 44 | 44 | 2.0 | 2.0 | 0.00 | 0.30 | 0.30 | 99 | 1009.7 |
| 20260507010229 | 44 | 49 | 1.0 | 2.0 | 0.00 | 0.30 | 0.30 | 99 | 1009.7 |
| 20260507005727 | 44 | 58 | 2.0 | 2.0 | 0.00 | 0.30 | 0.30 | 99 | 1009.5 |
| 20260507005223 | 44 | 71 | 2.0 | 2.0 | 0.00 | 0.30 | 0.30 | 99 | 1009.7 |
| 20260507004719 | 44 | 69 | 2.0 | 2.0 | 0.00 | 0.30 | 0.30 | 99 | 1009.4 |
| 20260507004218 | 44 | 76 | 2.0 | 2.0 | 0.00 | 0.30 | 0.30 | 99 | 1009.4 |
| 20260507003713 | 44 | 69 | 1.0 | 1.0 | 0.00 | 0.30 | 0.30 | 99 | 1009.2 |
| 20260507003214 | 44 | 65 | 2.0 | 3.0 | 0.00 | 0.30 | 0.30 | 99 | 1009.3 |
| 20260507002710 | 44 | 67 | 2.0 | 3.0 | 0.00 | 0.30 | 0.30 | 98 | 1009.1 |
| 20260507002206 | 44 | 70 | 2.0 | 2.0 | 0.00 | 0.30 | 0.30 | 98 | 1009.2 |
| 20260507001703 | 45 | 36 | 2.0 | 2.0 | 0.00 | 0.30 | 0.30 | 97 | 1009.1 |
| 20260507001200 | 45 | 84 | 2.0 | 3.0 | 0.00 | 0.30 | 0.30 | 96 | 1009.1 |
| 20260507000657 | 45 | 50 | 2.0 | 2.0 | 0.00 | 0.30 | 0.30 | 96 | 1009.0 |
| 20260507000152 | 45 | 81 | 2.0 | 2.0 | 0.00 | 0.30 | 0.30 | 96 | 1008.8 |
| 20260506235650 | 45 | 31 | 2.0 | 3.0 | 0.00 | 0.30 | 0.30 | 96 | 1009.1 |
| 20260506235145 | 45 | 346 | 2.0 | 3.0 | 0.00 | 0.30 | 0.30 | 96 | 1008.8 |
| 20260506234642 | 45 | 12 | 2.0 | 4.0 | 0.00 | 0.30 | 0.30 | 96 | 1008.7 |
| 20260506234139 | 45 | 327 | 2.0 | 3.0 | 0.00 | 0.30 | 0.30 | 98 | 1008.8 |
| 20260506233636 | 45 | 32 | 2.0 | 2.0 | 0.00 | 0.30 | 0.30 | 98 | 1008.9 |
| 20260506233133 | 45 | 11 | 0.0 | 2.0 | 0.00 | 0.30 | 0.30 | 99 | 1008.7 |
| 20260506232629 | 45 | 351 | 1.0 | 2.0 | 0.00 | 0.30 | 0.30 | 98 | 1008.7 |
| 20260506232125 | 46 | 2 | 0.0 | 2.0 | 0.00 | 0.30 | 0.30 | 98 | 1008.6 |
| 20260506231622 | 46 | 43 | 2.0 | 2.0 | 0.00 | 0.30 | 0.30 | 97 | 1008.7 |
| 20260506231121 | 45 | 16 | 2.0 | 3.0 | 0.00 | 0.30 | 0.30 | 97 | 1008.8 |
| 20260506230617 | 46 | 51 | 1.0 | 2.0 | 0.00 | 0.30 | 0.30 | 97 | 1008.7 |
| 20260506230114 | 46 | 80 | 1.0 | 2.0 | 0.00 | 0.30 | 0.30 | 98 | 1008.3 |
| 20260506225610 | 46 | 61 | 2.0 | 2.0 | 0.00 | 0.30 | 0.30 | 97 | 1008.5 |
| 20260506225107 | 46 | 74 | 3.0 | 3.0 | 0.00 | 0.30 | 0.30 | 97 | 1008.4 |
| 20260506224604 | 46 | 48 | 1.0 | 2.0 | 0.00 | 0.30 | 0.30 | 97 | 1008.5 |
| 20260506224100 | 46 | 70 | 1.0 | 2.0 | 0.00 | 0.30 | 0.30 | 98 | 1008.3 |
| 20260506223556 | 46 | 36 | 2.0 | 2.0 | 0.00 | 0.30 | 0.30 | 98 | 1008.3 |
| 20260506223053 | 46 | 40 | 1.0 | 3.0 | 0.00 | 0.30 | 0.30 | 98 | 1008.0 |
| 20260506222550 | 46 | 341 | 1.0 | 3.0 | 0.00 | 0.30 | 0.30 | 98 | 1008.0 |
| 20260506222046 | 46 | 112 | 4.0 | 4.0 | 0.00 | 0.30 | 0.30 | 98 | 1007.9 |
| 20260506221544 | 46 | 25 | 4.0 | 4.0 | 0.00 | 0.30 | 0.30 | 98 | 1008.3 |
| 20260506221042 | 46 | 37 | 3.0 | 4.0 | 0.00 | 0.30 | 0.30 | 98 | 1008.0 |
| 20260506220537 | 46 | 91 | 3.0 | 3.0 | 0.00 | 0.30 | 0.30 | 98 | 1008.2 |
| 20260506220033 | 46 | 20 | 3.0 | 4.0 | 0.00 | 0.30 | 0.30 | 98 | 1007.8 |
| 20260506215530 | 46 | 26 | 3.0 | 5.0 | 0.00 | 0.30 | 0.30 | 98 | 1007.8 |
| 20260506215026 | 46 | 9 | 3.0 | 4.0 | 0.00 | 0.30 | 0.30 | 98 | 1008.1 |
| 20260506214523 | 46 | 30 | 3.0 | 5.0 | 0.00 | 0.30 | 0.30 | 99 | 1008.0 |
| 20260506214020 | 46 | 40 | 3.0 | 3.0 | 0.00 | 0.30 | 0.30 | 99 | 1008.1 |
| 20260506213518 | 46 | 39 | 3.0 | 3.0 | 0.00 | 0.30 | 0.30 | 99 | 1007.7 |
| 20260506213015 | 46 | 69 | 3.0 | 4.0 | 0.00 | 0.30 | 0.30 | 98 | 1008.1 |
| 20260506212511 | 46 | 13 | 2.0 | 4.0 | 0.00 | 0.30 | 0.30 | 98 | 1008.0 |
| 20260506212007 | 46 | 38 | 4.0 | 6.0 | 0.00 | 0.30 | 0.30 | 98 | 1007.7 |
| 20260506211502 | 46 | 17 | 4.0 | 8.0 | 0.00 | 0.30 | 0.30 | 98 | 1007.4 |
| 20260506211000 | 46 | 28 | 5.0 | 5.0 | 0.00 | 0.30 | 0.30 | 99 | 1007.5 |
| 20260506210456 | 46 | 5 | 4.0 | 5.0 | 0.00 | 0.30 | 0.30 | 99 | 1007.5 |
| 20260506205953 | 47 | 60 | 2.0 | 7.0 | 0.00 | 0.30 | 0.30 | 99 | 1007.2 |
| 20260506205449 | 47 | 67 | 1.0 | 4.0 | 0.00 | 0.30 | 0.30 | 99 | 1006.9 |
| 20260506204945 | 47 | 35 | 3.0 | 5.0 | 0.00 | 0.30 | 0.30 | 99 | 1006.8 |
| 20260506204443 | 47 | 19 | 2.0 | 4.0 | 0.00 | 0.30 | 0.30 | 99 | 1006.9 |
| 20260506203941 | 47 | 41 | 0.0 | 2.0 | 0.00 | 0.30 | 0.30 | 99 | 1006.9 |
| 20260506203438 | 47 | 38 | 4.0 | 6.0 | 0.00 | 0.30 | 0.30 | 99 | 1006.6 |
| 20260506202935 | 47 | 106 | 4.0 | 4.0 | 0.00 | 0.30 | 0.30 | 99 | 1006.8 |
| 20260506202432 | 47 | 349 | 2.0 | 3.0 | 0.02 | 0.30 | 0.30 | 99 | 1006.7 |
| 20260506201928 | 47 | 42 | 2.0 | 3.0 | 0.02 | 0.30 | 0.30 | 99 | 1006.5 |
| 20260506201426 | 47 | 21 | 3.0 | 3.0 | 0.00 | 0.29 | 0.29 | 99 | 1006.2 |
| 20260506200922 | 47 | 31 | 3.0 | 4.0 | 0.00 | 0.29 | 0.29 | 99 | 1006.1 |
| 20260506200418 | 47 | 312 | 5.0 | 9.0 | 0.00 | 0.29 | 0.29 | 99 | 1006.2 |
| 20260506195915 | 47 | 33 | 3.0 | 4.0 | 0.00 | 0.29 | 0.29 | 99 | 1006.2 |
| 20260506195412 | 47 | 29 | 4.0 | 6.0 | 0.00 | 0.29 | 0.29 | 99 | 1006.1 |
| 20260506194909 | 47 | 47 | 2.0 | 3.0 | 0.00 | 0.29 | 0.29 | 99 | 1006.1 |
| 20260506194406 | 47 | 89 | 2.0 | 6.0 | 0.00 | 0.29 | 0.29 | 99 | 1006.3 |
| 20260506193903 | 47 | 7 | 3.0 | 4.0 | 0.00 | 0.29 | 0.29 | 99 | 1006.2 |
| 20260506193400 | 47 | 32 | 2.0 | 4.0 | 0.02 | 0.29 | 0.29 | 99 | 1006.2 |
| 20260506192856 | 48 | 32 | 2.0 | 4.0 | 0.05 | 0.29 | 0.29 | 99 | 1006.2 |
| 20260506192353 | 48 | 30 | 4.0 | 5.0 | 0.05 | 0.29 | 0.29 | 99 | 1006.2 |
| 20260506191850 | 48 | 6 | 3.0 | 6.0 | 0.07 | 0.29 | 0.29 | 99 | 1005.8 |
| 20260506191346 | 48 | 8 | 2.0 | 3.0 | 0.05 | 0.28 | 0.28 | 99 | 1005.8 |
| 20260506190843 | 49 | 294 | 3.0 | 4.0 | 0.00 | 0.28 | 0.28 | 99 | 1006.0 |
| 20260506190339 | 49 | 306 | 1.0 | 3.0 | 0.00 | 0.28 | 0.28 | 99 | 1005.9 |
| 20260506185837 | 49 | 346 | 2.0 | 2.0 | 0.00 | 0.28 | 0.28 | 99 | 1005.8 |
| 20260506185334 | 49 | 21 | 0.0 | 3.0 | 0.00 | 0.28 | 0.28 | 99 | 1005.5 |
| 20260506184831 | 49 | 67 | 3.0 | 4.0 | 0.00 | 0.28 | 0.28 | 99 | 1005.4 |
| 20260506184328 | 49 | 23 | 2.0 | 3.0 | 0.00 | 0.28 | 0.28 | 99 | 1005.4 |
| 20260506183825 | 49 | 71 | 3.0 | 3.0 | 0.00 | 0.28 | 0.28 | 99 | 1005.4 |
| 20260506183320 | 49 | 32 | 3.0 | 3.0 | 0.00 | 0.28 | 0.28 | 99 | 1005.4 |
| 20260506182818 | 49 | 84 | 2.0 | 4.0 | 0.00 | 0.28 | 0.28 | 99 | 1005.3 |
| 20260506182315 | 49 | 16 | 3.0 | 4.0 | 0.00 | 0.28 | 0.28 | 99 | 1005.4 |
| 20260506181813 | 49 | 48 | 3.0 | 5.0 | 0.00 | 0.28 | 0.28 | 99 | 1005.2 |
| 20260506181310 | 49 | 42 | 3.0 | 4.0 | 0.00 | 0.28 | 0.28 | 99 | 1004.9 |
| 20260506180807 | 49 | 346 | 2.0 | 4.0 | 0.00 | 0.28 | 0.28 | 99 | 1005.2 |
| 20260506180303 | 49 | 49 | 2.0 | 2.0 | 0.00 | 0.28 | 0.28 | 99 | 1005.2 |
| 20260506175759 | 49 | 29 | 3.0 | 3.0 | 0.00 | 0.28 | 0.28 | 99 | 1005.0 |
| 20260506175256 | 49 | 25 | 3.0 | 3.0 | 0.00 | 0.28 | 0.28 | 99 | 1005.0 |
| 20260506174754 | 49 | 43 | 2.0 | 4.0 | 0.00 | 0.28 | 0.28 | 99 | 1004.9 |
| 20260506174251 | 49 | 28 | 3.0 | 4.0 | 0.00 | 0.28 | 0.28 | 99 | 1004.8 |
| 20260506173749 | 49 | 64 | 2.0 | 4.0 | 0.00 | 0.28 | 0.28 | 99 | 1004.7 |
| 20260506173245 | 50 | 62 | 3.0 | 4.0 | 0.00 | 0.28 | 0.28 | 99 | 1004.5 |
| 20260506172742 | 50 | 125 | 2.0 | 3.0 | 0.00 | 0.28 | 0.28 | 99 | 1004.7 |
| 20260506172238 | 50 | 32 | 2.0 | 3.0 | 0.02 | 0.28 | 0.28 | 99 | 1004.6 |
| 20260506171736 | 51 | 97 | 1.0 | 3.0 | 0.02 | 0.28 | 0.28 | 99 | 1004.7 |
| 20260506171233 | 51 | 68 | 2.0 | 4.0 | 0.00 | 0.27 | 0.27 | 99 | 1004.7 |
| 20260506170731 | 51 | 319 | 2.0 | 4.0 | 0.00 | 0.27 | 0.27 | 99 | 1004.7 |
| 20260506170227 | 51 | 28 | 3.0 | 4.0 | 0.00 | 0.27 | 0.27 | 99 | 1004.5 |
| 20260506165726 | 52 | 1 | 3.0 | 5.0 | 0.00 | 0.27 | 0.27 | 99 | 1004.3 |
| 20260506165222 | 52 | 359 | 2.0 | 6.0 | 0.00 | 0.27 | 0.27 | 99 | 1004.4 |
| 20260506164720 | 53 | 10 | 4.0 | 6.0 | 0.00 | 0.27 | 0.27 | 99 | 1004.5 |
| 20260506164217 | 55 | 346 | 1.0 | 6.0 | 0.02 | 0.27 | 0.27 | 98 | 1004.4 |
| 20260506163713 | 57 | 327 | 1.0 | 5.0 | 0.02 | 0.27 | 0.27 | 99 | 1004.2 |
| 20260506163208 | 57 | 248 | 2.0 | 2.0 | 0.00 | 0.27 | 0.27 | 99 | 1004.1 |
| 20260506162704 | 57 | 88 | 2.0 | 2.0 | 0.00 | 0.27 | 0.27 | 99 | 1004.0 |
| 20260506162202 | 57 | 43 | 3.0 | 3.0 | 0.02 | 0.27 | 0.27 | 99 | 1004.1 |
| 20260506161659 | 57 | 130 | 1.0 | 4.0 | 0.02 | 0.27 | 0.27 | 99 | 1004.0 |
| 20260506161155 | 57 | 163 | 2.0 | 5.0 | 0.02 | 0.26 | 0.26 | 99 | 1004.0 |
| 20260506160654 | 57 | 10 | 3.0 | 4.0 | 0.02 | 0.26 | 0.26 | 99 | 1004.1 |
| 20260506160150 | 57 | 184 | 2.0 | 4.0 | 0.00 | 0.26 | 0.26 | 99 | 1004.1 |
| 20260506155649 | 57 | 85 | 1.0 | 2.0 | 0.00 | 0.26 | 0.26 | 99 | 1004.4 |
| 20260506155145 | 57 | 22 | 0.0 | 2.0 | 0.00 | 0.26 | 0.26 | 99 | 1004.2 |
| 20260506153247 | 56 | 102 | 2.0 | 5.0 | 0.00 | 0.26 | 0.26 | 99 | 1004.4 |
| 20260506152744 | 56 | 180 | 0.0 | 3.0 | 0.02 | 0.26 | 0.26 | 99 | 1004.2 |
| 20260506152242 | 56 | 65 | 1.0 | 3.0 | 0.02 | 0.26 | 0.26 | 99 | 1004.2 |
| 20260506151741 | 56 | 88 | 0.0 | 2.0 | 0.00 | 0.25 | 0.25 | 99 | 1004.1 |
| 20260506151237 | 56 | 96 | 1.0 | 4.0 | 0.02 | 0.25 | 0.25 | 99 | 1004.5 |
| 20260506150733 | 56 | 124 | 0.0 | 2.0 | 0.05 | 0.25 | 0.25 | 99 | 1004.3 |
| 20260506150231 | 56 | 256 | 0.0 | 2.0 | 0.02 | 0.25 | 0.25 | 99 | 1004.3 |
| 20260506145728 | 56 | 89 | 0.0 | 2.0 | 0.02 | 0.24 | 0.24 | 99 | 1004.1 |
| 20260506145224 | 56 | 95 | 2.0 | 3.0 | 0.05 | 0.24 | 0.24 | 99 | 1004.3 |
| 20260506144721 | 56 | 104 | 1.0 | 4.0 | 0.05 | 0.24 | 0.24 | 99 | 1004.5 |
| 20260506144218 | 56 | 223 | 2.0 | 3.0 | 0.05 | 0.24 | 0.24 | 99 | 1004.1 |
| 20260506143716 | 56 | 178 | 2.0 | 4.0 | 0.07 | 0.23 | 0.23 | 99 | 1004.0 |
| 20260506143213 | 56 | 190 | 1.0 | 3.0 | 0.05 | 0.23 | 0.23 | 99 | 1004.2 |
| 20260506142712 | 56 | 259 | 0.0 | 2.0 | 0.02 | 0.22 | 0.22 | 99 | 1004.2 |
| 20260506142209 | 56 | 45 | 1.0 | 2.0 | 0.05 | 0.22 | 0.22 | 99 | 1004.3 |
| 20260506141707 | 56 | 181 | 0.0 | 3.0 | 0.02 | 0.22 | 0.22 | 99 | 1004.3 |
| 20260506141205 | 56 | 101 | 1.0 | 1.0 | 0.02 | 0.21 | 0.21 | 99 | 1004.3 |
| 20260506140703 | 56 | 284 | 0.0 | 2.0 | 0.02 | 0.21 | 0.21 | 99 | 1004.4 |
| 20260506140159 | 55 | 53 | 2.0 | 2.0 | 0.05 | 0.21 | 0.21 | 99 | 1004.5 |
| 20260506135656 | 55 | 116 | 0.0 | 2.0 | 0.07 | 0.21 | 0.21 | 99 | 1004.5 |
| 20260506135152 | 55 | 221 | 0.0 | 2.0 | 0.02 | 0.20 | 0.20 | 99 | 1004.5 |
| 20260506134649 | 54 | 200 | 0.0 | 2.0 | 0.05 | 0.20 | 0.20 | 99 | 1004.5 |
| 20260506134145 | 53 | 276 | 2.0 | 2.0 | 0.05 | 0.19 | 0.19 | 99 | 1004.6 |
| 20260506133642 | 53 | 13 | 0.0 | 1.0 | 0.07 | 0.19 | 0.19 | 99 | 1004.4 |
| 20260506133139 | 53 | 323 | 1.0 | 1.0 | 0.07 | 0.18 | 0.18 | 99 | 1004.9 |
| 20260506132637 | 53 | 64 | 2.0 | 2.0 | 0.09 | 0.17 | 0.17 | 99 | 1004.9 |
| 20260506132133 | 52 | 286 | 1.0 | 3.0 | 0.12 | 0.17 | 0.17 | 99 | 1004.9 |
| 20260506131631 | 52 | 160 | 0.0 | 2.0 | 0.12 | 0.16 | 0.16 | 99 | 1005.2 |
| 20260506131127 | 52 | 12 | 0.0 | 3.0 | 0.12 | 0.15 | 0.15 | 99 | 1005.1 |
| 20260506130624 | 51 | 314 | 1.0 | 3.0 | 0.09 | 0.13 | 0.13 | 99 | 1005.2 |
| 20260506130122 | 51 | 164 | 2.0 | 3.0 | 0.12 | 0.13 | 0.13 | 99 | 1005.4 |
| 20260506125620 | 51 | 28 | 0.0 | 2.0 | 0.14 | 0.11 | 0.11 | 99 | 1005.4 |
| 20260506125117 | 51 | 82 | 2.0 | 3.0 | 0.17 | 0.11 | 0.11 | 99 | 1005.4 |
| 20260506124615 | 51 | 76 | 1.0 | 2.0 | 0.12 | 0.09 | 0.09 | 99 | 1005.3 |
| 20260506124112 | 51 | 116 | 1.0 | 2.0 | 0.05 | 0.08 | 0.08 | 99 | 1005.2 |
| 20260506123610 | 51 | 72 | 1.0 | 2.0 | 0.09 | 0.07 | 0.07 | 99 | 1005.0 |
| 20260506123108 | 51 | 72 | 2.0 | 3.0 | 0.07 | 0.07 | 0.07 | 99 | 1004.9 |
| 20260506122604 | 51 | 92 | 2.0 | 3.0 | 0.05 | 0.06 | 0.06 | 99 | 1005.0 |
| 20260506122103 | 51 | 122 | 0.0 | 2.0 | 0.05 | 0.06 | 0.06 | 99 | 1005.0 |
| 20260506121600 | 51 | 62 | 1.0 | 2.0 | 0.02 | 0.05 | 0.05 | 99 | 1004.9 |
| 20260506121056 | 50 | 94 | 1.0 | 2.0 | 0.00 | 0.04 | 0.04 | 99 | 1004.8 |
| 20260506120554 | 50 | 304 | 0.0 | 2.0 | 0.00 | 0.04 | 0.04 | 99 | 1004.8 |
| 20260506120051 | 50 | 27 | 2.0 | 2.0 | 0.02 | 0.04 | 0.04 | 99 | 1004.8 |
| 20260506115549 | 50 | 54 | 1.0 | 2.0 | 0.02 | 0.04 | 0.04 | 99 | 1004.9 |
| 20260506115047 | 50 | 54 | 0.0 | 2.0 | 0.00 | 0.04 | 0.04 | 99 | 1005.0 |
| 20260506114544 | 50 | 79 | 2.0 | 3.0 | 0.00 | 0.04 | 0.04 | 99 | 1005.2 |
| 20260506114043 | 50 | 96 | 2.0 | 3.0 | 0.05 | 0.04 | 0.04 | 99 | 1005.4 |
| 20260506113540 | 50 | 51 | 1.0 | 2.0 | 0.05 | 0.04 | 0.04 | 99 | 1005.5 |
| 20260506113037 | 50 | 50 | 1.0 | 2.0 | 0.05 | 0.03 | 0.03 | 99 | 1005.5 |
| 20260506112534 | 50 | 67 | 1.0 | 2.0 | 0.02 | 0.03 | 0.03 | 99 | 1005.4 |
| 20260506112031 | 50 | 84 | 2.0 | 3.0 | 0.00 | 0.02 | 0.02 | 99 | 1005.5 |
| 20260506111529 | 50 | 71 | 1.0 | 2.0 | 0.00 | 0.02 | 0.02 | 99 | 1005.7 |
| 20260506111026 | 50 | 66 | 2.0 | 2.0 | 0.00 | 0.02 | 0.02 | 99 | 1005.6 |
| 20260506110524 | 50 | 89 | 2.0 | 3.0 | 0.00 | 0.02 | 0.02 | 99 | 1005.5 |
| 20260506110021 | 50 | 54 | 2.0 | 2.0 | 0.00 | 0.02 | 0.02 | 99 | 1005.5 |
| 20260506105517 | 50 | 33 | 3.0 | 4.0 | 0.02 | 0.02 | 0.02 | 99 | 1005.5 |
| 20260506105014 | 50 | 78 | 2.0 | 2.0 | 0.00 | 0.02 | 0.02 | 99 | 1005.3 |
| 20260506104512 | 50 | 53 | 2.0 | 3.0 | 0.00 | 0.02 | 0.02 | 99 | 1005.3 |
| 20260506104010 | 50 | 52 | 2.0 | 3.0 | 0.00 | 0.02 | 0.02 | 99 | 1005.3 |
| 20260506103507 | 50 | 50 | 2.0 | 3.0 | 0.00 | 0.02 | 0.02 | 99 | 1005.3 |
| 20260506103003 | 50 | 40 | 2.0 | 3.0 | 0.02 | 0.02 | 0.02 | 99 | 1005.3 |
| 20260506102502 | 50 | 49 | 2.0 | 3.0 | 0.02 | 0.02 | 0.02 | 99 | 1005.3 |
| 20260506101959 | 50 | 37 | 3.0 | 4.0 | 0.00 | 0.02 | 0.02 | 99 | 1005.3 |
| 20260506101455 | 50 | 43 | 2.0 | 3.0 | 0.02 | 0.02 | 0.02 | 99 | 1005.1 |
| 20260506100952 | 50 | 50 | 2.0 | 3.0 | 0.02 | 0.02 | 0.02 | 99 | 1005.2 |
| 20260506100451 | 50 | 42 | 2.0 | 3.0 | 0.00 | 0.01 | 0.01 | 99 | 1004.9 |
| 20260506095948 | 50 | 41 | 2.0 | 2.0 | 0.00 | 0.01 | 0.01 | 99 | 1005.1 |
| 20260506095447 | 50 | 55 | 2.0 | 3.0 | 0.00 | 0.01 | 0.01 | 99 | 1005.0 |
| 20260506094942 | 50 | 70 | 3.0 | 3.0 | 0.02 | 0.01 | 0.01 | 99 | 1005.0 |
| 20260506094441 | 50 | 71 | 2.0 | 3.0 | 0.02 | 0.01 | 0.01 | 99 | 1005.0 |
| 20260506093938 | 50 | 71 | 2.0 | 3.0 | 0.00 | 0.01 | 0.01 | 99 | 1005.0 |
| 20260506093436 | 50 | 68 | 2.0 | 2.0 | 0.00 | 0.01 | 0.01 | 99 | 1005.1 |
| 20260506092934 | 50 | 104 | 2.0 | 2.0 | 0.00 | 0.01 | 0.01 | 99 | 1004.9 |
| 20260506092432 | 50 | 44 | 3.0 | 3.0 | 0.00 | 0.01 | 0.01 | 99 | 1005.1 |
| 20260506091928 | 50 | 70 | 2.0 | 3.0 | 0.00 | 0.01 | 0.01 | 99 | 1005.2 |
| 20260506091426 | 50 | 69 | 0.0 | 2.0 | 0.02 | 0.01 | 0.01 | 99 | 1005.2 |
| 20260506090923 | 50 | 48 | 1.0 | 2.0 | 0.02 | 0.01 | 0.01 | 99 | 1005.1 |
| 20260506090421 | 50 | 36 | 2.0 | 3.0 | 0.00 | 0.00 | 0.00 | 98 | 1005.1 |
| 20260506085917 | 50 | 78 | 2.0 | 2.0 | 0.00 | 0.00 | 0.00 | 98 | 1005.4 |
| 20260506085414 | 50 | 83 | 2.0 | 2.0 | 0.02 | 0.00 | 0.00 | 98 | 1005.4 |
| 20260506084910 | 50 | 84 | 2.0 | 2.0 | 0.02 | 0.00 | 0.00 | 98 | 1005.6 |
| 20260506084407 | 50 | 31 | 3.0 | 3.0 | 0.00 | 0.00 | 0.00 | 98 | 1005.6 |
| 20260506083903 | 50 | 52 | 1.0 | 2.0 | 0.00 | 0.00 | 0.00 | 98 | 1005.7 |
| 20260506083401 | 50 | 103 | 2.0 | 3.0 | 0.00 | 0.00 | 0.00 | 97 | 1005.8 |
| 20260506082858 | 50 | 23 | 0.0 | 3.0 | 0.00 | 0.00 | 0.00 | 97 | 1005.8 |
| 20260506082355 | 50 | 119 | 0.0 | 2.0 | 0.00 | 0.00 | 0.00 | 97 | 1005.8 |
| 20260506081850 | 50 | 86 | 2.0 | 2.0 | 0.00 | 0.00 | 0.00 | 97 | 1005.6 |
| 20260506081349 | 50 | 96 | 2.0 | 2.0 | 0.00 | 0.00 | 0.00 | 97 | 1005.7 |
| 20260506080846 | 50 | 80 | 2.0 | 2.0 | 0.00 | 0.00 | 0.00 | 97 | 1005.8 |
| 20260506080343 | 50 | 36 | 2.0 | 3.0 | 0.00 | 0.00 | 0.00 | 97 | 1005.8 |